This is the latest recevied weather packets stored in our database for station/object W8KVG. If no packets are shown the sender has not sent any weather packets the latest 1 day(s).
| Time | Temp. | Humidity | Pressure | Rain* | Wind** | Luminosity | Snow |
|---|---|---|---|---|---|---|---|
| 1778021819 | 21.11° C | 57% | 1006.8 hPa | 0 mm | 0.45 m/s, 297° | 48 W/m² | - |
| 1778021516 | 21.11° C | 57% | 1006.8 hPa | 0 mm | 0.45 m/s, 258° | 51 W/m² | - |
| 1778021211 | 21.11° C | 57% | 1006.8 hPa | 0 mm | 1.34 m/s, 2° | 43 W/m² | - |
| 1778020909 | 21.11° C | 56% | 1006.9 hPa | 0 mm | 1.34 m/s, 356° | 47 W/m² | - |
| 1778020606 | 21.11° C | 57% | 1006.8 hPa | 0 mm | 1.34 m/s, 16° | 64 W/m² | - |
| 1778020302 | 21.11° C | 57% | 1006.9 hPa | 0 mm | 0.45 m/s, 271° | 59 W/m² | - |
| 1778019998 | 21.11° C | 56% | 1007 hPa | 0 mm | 0.89 m/s, 313° | 56 W/m² | - |
| 1778019695 | 21.67° C | 57% | 1007.1 hPa | 0 mm | 0.89 m/s, 355° | 57 W/m² | - |
| 1778019392 | 21.67° C | 55% | 1006.8 hPa | 0 mm | 2.24 m/s, 205° | 56 W/m² | - |
| 1778019089 | 21.67° C | 55% | 1007 hPa | 0 mm | 0.89 m/s, 228° | 62 W/m² | - |
| 1778018786 | 22.22° C | 55% | 1006.9 hPa | 0 mm | 1.34 m/s, 218° | 61 W/m² | - |
| 1778018483 | 22.22° C | 56% | 1007.2 hPa | 0 mm | 3.58 m/s, 302° | 56 W/m² | - |
| 1778018181 | 22.22° C | 54% | 1006.9 hPa | 0 mm | 0.89 m/s, 198° | 52 W/m² | - |
| 1778017879 | 22.78° C | 54% | 1007.2 hPa | 0 mm | 0.89 m/s, 224° | 56 W/m² | - |
| 1778017577 | 22.22° C | 54% | 1007.3 hPa | 0 mm | 0.89 m/s, 213° | 68 W/m² | - |
| 1778017274 | 22.22° C | 54% | 1007.1 hPa | 0 mm | 0.89 m/s, 1° | 82 W/m² | - |
| 1778016971 | 21.67° C | 55% | 1006.8 hPa | 0 mm | 1.34 m/s, 179° | 92 W/m² | - |
| 1778016668 | 21.67° C | 55% | 1006.9 hPa | 0 mm | 0 m/s | 116 W/m² | - |
| 1778016363 | 22.22° C | 54% | 1006.9 hPa | 0 mm | 1.79 m/s, 181° | 144 W/m² | - |
| 1778016066 | 21.67° C | 55% | 1006.9 hPa | 0 mm | 1.34 m/s, 319° | 128 W/m² | - |
| 1778015758 | 21.67° C | 54% | 1006.9 hPa | 0 mm | 0.89 m/s, 189° | 123 W/m² | - |
| 1778015456 | 22.22° C | 55% | 1007 hPa | 0 mm | 1.34 m/s, 169° | 116 W/m² | - |
| 1778015152 | 21.67° C | 55% | 1007 hPa | 0 mm | 0 m/s | 107 W/m² | - |
| 1778014849 | 21.67° C | 55% | 1007.1 hPa | 0 mm | 3.58 m/s, 184° | 82 W/m² | - |
| 1778014547 | 21.67° C | 56% | 1007.1 hPa | 0 mm | 0.89 m/s, 222° | 58 W/m² | - |
* Rain latest hour (hover to see other rain measurements)
** Current wind speed in m/s (hover to see current wind gust speed)